AirNav   ProFlight Series 2 Aviation Headset
 
 541 users online  

6MI8 Omans Heliport
Almont, Michigan, USA

GOING TO ALMONT?


FAA INFORMATION EFFECTIVE 16 JULY 2020

Location

FAA Identifier: 6MI8
Lat/Long: 42-55-08.1000N 083-03-42.7600W
42-55.135000N 083-03.712667W
42.9189167,-83.0618778
(estimated)
Elevation: 865 ft. / 264 m (estimated)
Variation: 06W (1990)
From city: 1 mile W of ALMONT, MI
Time zone: UTC -4 (UTC -5 during Standard Time)
Zip code: 48003

Heliport Operations

Heliport use: Private use. Permission required prior to landing
Activation date: 12/1992
Control tower: no
ARTCC: CLEVELAND CENTER
FSS: LANSING FLIGHT SERVICE STATION
Attendance: UNATNDD
Segmented circle: no

Heliport Communications

WX AWOS-3P at D95 (13 nm NW): 134.050 (810-664-5038)

Nearby radio navigation aids

VOR radial/distance  VOR name  Freq  Var
FNTr101/30.2FLINT VORTAC116.9006W
SVMr040/38.6SALEM VORTAC114.3003W

Heliport Services

Runway Information

Helipad H1

Dimensions: 20 x 20 ft. / 6 x 6 m
Surface: concrete
Traffic pattern: leftleft

Heliport Ownership and Management from official FAA records

Ownership: Privately-owned
Owner: THOMAS G. OMANS
7090 GENERAL SQUIRE
ALMONT, MI 48003
Phone 313-264-4646
Manager: THOMAS G. OMANS
7090 GENERAL SQUIRE
ALMONT, MI 48003
Phone 313-798-3369

Additional Remarks

A52-H1 70 FT TREES 400 FT EAST & 40 FT POLES 100 FT SOUTHEAST OF HELIPAD.
FOR CD CTC SELFRIDGE APCH AT 586-239-5706, WHEN APCH CLSD CTC CLEVELAND ARTCC AT 440-774-0224, IF UNA CTC 440-774-0490.

Instrument Procedures

There are no published instrument procedures at 6MI8.

Some nearby airports with instrument procedures:

D98 - Romeo State Airport (8 nm SE)
D95 - Dupont-Lapeer Airport (13 nm NW)
57D - Ray Community Airport (13 nm SE)
KMTC - Selfridge Air National Guard Base (21 nm SE)
KPTK - Oakland County International Airport (22 nm SW)
 
Loc | Ops | Rwys | IFR | FBO | Links
Com | Nav | Svcs | Stats | Notes
Area around 6MI8 (Omans Heliport)
 
Road maps at: MapQuest Bing Google
 
Aerial photo
No photo
 
Sectional chart

 
Airport distance calculator
Flying to Omans Heliport? Find the distance to fly.

From to 6MI8

Sunrise and sunset
Times for 13-Aug-2020
 Local
(UTC-4)
 Zulu
(UTC)
Morning civil twilight06:0710:07
Sunrise06:3810:38
Sunset20:3600:36
Evening civil twilight21:0601:06

Current date and time
Zulu (UTC)  13-Aug-2020 05:48:06
Local (UTC-4)  13-Aug-2020 01:48:06
 
METAR
KD95 
13nm NW 
130535Z AUTO 00000KT 10SM CLR 15/15 A3015 RMK AO2 T01500150
KMTC 
21nm SE 
130456Z AUTO 00000KT 10SM CLR 18/18 A3012 RMK AO2 SLP201 T01770177 402850144 $
KPTK 
22nm SW 
130353Z 00000KT 10SM CLR 19/11 RMK LAST
KVLL 
23nm S 
130535Z AUTO 00000KT 10SM CLR 21/13 A3015 RMK AO2 T02100125
KPHN 
24nm E 
130535Z AUTO 00000KT 1/4SM FG VV002 14/13 A3014 RMK AO2
TAF
KMTC 
21nm SE 
130100Z 1301/1407 08006KT 9999 FEW100 FEW250 QNH3008INS TX28/1320Z TN15/1311Z LAST NO AMDS AFT 1303 NEXT 1309
KPTK 
22nm SW 
121720Z 1218/1318 09005KT P6SM SCT250 FM130600 03005KT P6SM SKC
NOTAMs
Click for the latest NOTAMs
NOTAMs are issued by the DoD/FAA and will open in a separate window not controlled by AirNav.

 

 
 

Would you like to see your business listed on this page?

 If your business provides an interesting product or service to pilots, flight crews, aircraft, or users of the Omans Heliport, you should consider listing it here.  To start the listing process, click on the button below
 
Add a business
 

Other Pages about Omans Heliport

Update a link
 
Copyright © AirNav, LLC. All rights reserved. Privacy Policy  Contact